AirNav   Everest Fuels
 
 434 users online  

33AR Skypoint Estates Airport
Greers Ferry, Arkansas, USA

GOING TO GREERS FERRY?


FAA INFORMATION EFFECTIVE 16 JULY 2020

Location

FAA Identifier: 33AR
Lat/Long: 35-36-08.0000N 092-08-33.0000W
35-36.133333N 092-08.550000W
35.6022222,-92.1425000
(estimated)
Elevation: 547 ft. / 167 m (estimated)
From city: 2 miles NE of GREERS FERRY, AR
Time zone: UTC -5 (UTC -6 during Standard Time)
Zip code: 72067

Airport Operations

Airport use: Private use. Permission required prior to landing
Activation date: 02/2005
Control tower: no
ARTCC: MEMPHIS CENTER
FSS: JONESBORO FLIGHT SERVICE STATION
Attendance: UNATNDD
Segmented circle: no

Airport Communications

UNICOM: 122.7
WX AWOS-3 at CCA (15 nm W): 118.725 (501-745-5000)

Nearby radio navigation aids

NDB name  Hdg/Dist  Freq  Var  ID
TONEYVILLE350/39.429001ETYV - -.-- ...-

Airport Services

Runway Information

Runway 9/27

Dimensions: 2300 x 100 ft. / 701 x 30 m
Surface: turf
RUNWAY 9  RUNWAY 27
Traffic pattern: leftleft
Obstructions: none30 ft. pline, 1800 ft. from runway

Airport Ownership and Management from official FAA records

Ownership: Privately-owned
Owner: SKYPOINT SURBURBAN IMPROVEMENT DIST
212 AIRPORT ROAD
EDGEMONT, AR 72044
Phone 501-825-7842
Manager: RAY DEARMON
212 AIRPORT RD
EDGEMONT, AR 72044
Phone 501-825-8551
CONTACT CO-MANAGER - PHILLIP GIST 801-825-7569

Additional Remarks

FOR CD CTC MEMPHIS ARTCC AT 901-368-8453.

Instrument Procedures

There are no published instrument procedures at 33AR.

Some nearby airports with instrument procedures:

KHBZ - Heber Springs Municipal Airport (8 nm SE)
2A2 - Holley Mountain Airpark (13 nm W)
KCCA - Clinton Municipal Airport (15 nm W)
7M2 - Mountain View Airport-Wilcox Memorial Field (16 nm N)
KBVX - Batesville Regional Airport (25 nm E)
 
Loc | Ops | Rwys | IFR | FBO | Links
Com | Nav | Svcs | Stats | Notes
Area around 33AR (Skypoint Estates Airport)
 
Road maps at: MapQuest Bing Google
 
Aerial photo
No photo
 
Sectional chart

 
Airport distance calculator
Flying to Skypoint Estates Airport? Find the distance to fly.

From to 33AR

Sunrise and sunset
Times for 05-Aug-2020
 Local
(UTC-5)
 Zulu
(UTC)
Morning civil twilight05:5410:54
Sunrise06:2211:22
Sunset20:0701:07
Evening civil twilight20:3501:35

Current date and time
Zulu (UTC)  05-Aug-2020 06:25:11
Local (UTC-5)  05-Aug-2020 01:25:11
 
METAR
KCCA 
15nm W 
050555Z AUTO 00000KT 10SM SCT055 BKN065 17/16 A3010 RMK AO2
KBVX 
25nm E 
050556Z AUTO 03004KT 10SM BKN070 20/14 A3010 RMK AO2 SLP187 T02000139 10272 20200 402890183 51008
KSRC 
29nm SE 
050556Z AUTO 01005KT 10SM BKN070 20/16 A3007 RMK AO2 SLP181 T02000161 10272 20200 403000194 50008
TAF
KLRF 
41nm S 
042300Z 0423/0605 05006KT 9999 SCT060 BKN080 QNH2999INS BECMG 0502/0503 VRB06KT 9999 BKN040 QNH2997INS BECMG 0514/0515 04009KT 9999 FEW040 QNH2999INS TX28/0520Z TN18/0511Z
KBPK 
48nm N 
050535Z 0506/0606 VRB03KT P6SM SCT250 FM051500 14007KT P6SM SCT040 BKN250 FM060200 12003KT P6SM SCT250
NOTAMs
Click for the latest NOTAMs
NOTAMs are issued by the DoD/FAA and will open in a separate window not controlled by AirNav.

 

 
 

Would you like to see your business listed on this page?

 If your business provides an interesting product or service to pilots, flight crews, aircraft, or users of the Skypoint Estates Airport, you should consider listing it here.  To start the listing process, click on the button below
 
Add a business
 

Other Pages about Skypoint Estates Airport

Update a link
 
Copyright © AirNav, LLC. All rights reserved. Privacy Policy  Contact